owner,sensor,date,latitude,longitude,vertical_datum,sea_water_practical_salinity,qcFlag 
TCOON,ioos:station:TCOON:042:1,2014-01-01T00:00:00Z,27.8888,-97.5696,0.0,6.5,1111122 
TCOON,ioos:station:TCOON:042:1,2014-01-01T00:30:00Z,27.8888,-97.5696,0.0,6.1,1111122 
TCOON,ioos:station:TCOON:042:1,2014-01-01T01:00:00Z,27.8888,-97.5696,0.0,5.6,1111122 
TCOON,ioos:station:TCOON:042:1,2014-01-01T01:30:00Z,27.8888,-97.5696,0.0,5.5,1111122 
TCOON,ioos:station:TCOON:042:1,2014-01-01T02:00:00Z,27.8888,-97.5696,0.0,5.2,1111122 
TCOON,ioos:station:TCOON:042:1,2014-01-01T02:30:00Z,27.8888,-97.5696,0.0,4.9,1111122 
TCOON,ioos:station:TCOON:042:1,2014-01-01T03:00:00Z,27.8888,-97.5696,0.0,4.6,1111122 
TCOON,ioos:station:TCOON:042:1,2014-01-01T04:00:00Z,27.8888,-97.5696,0.0,4.1,1111122 
TCOON,ioos:station:TCOON:042:1,2014-01-01T04:30:00Z,27.8888,-97.5696,0.0,4.0,1111122 
TCOON,ioos:station:TCOON:042:1,2014-01-01T05:00:00Z,27.8888,-97.5696,0.0,3.9,1111122 
TCOON,ioos:station:TCOON:042:1,2014-01-01T05:30:00Z,27.8888,-97.5696,0.0,3.7,1111122 
TCOON,ioos:station:TCOON:042:1,2014-01-01T06:00:00Z,27.8888,-97.5696,0.0,3.8,1111122 
TCOON,ioos:station:TCOON:042:1,2014-01-01T06:30:00Z,27.8888,-97.5696,0.0,3.8,1111122 
TCOON,ioos:station:TCOON:042:1,2014-01-01T07:00:00Z,27.8888,-97.5696,0.0,4.5,1111122 
TCOON,ioos:station:TCOON:042:1,2014-01-01T07:30:00Z,27.8888,-97.5696,0.0,5.0,1111122 
TCOON,ioos:station:TCOON:042:1,2014-01-01T08:00:00Z,27.8888,-97.5696,0.0,5.0,1111122 
TCOON,ioos:station:TCOON:042:1,2014-01-01T08:30:00Z,27.8888,-97.5696,0.0,4.4,1111122 
TCOON,ioos:station:TCOON:042:1,2014-01-01T09:00:00Z,27.8888,-97.5696,0.0,3.7,1111122 
TCOON,ioos:station:TCOON:042:1,2014-01-01T09:30:00Z,27.8888,-97.5696,0.0,3.3,1111122 
TCOON,ioos:station:TCOON:042:1,2014-01-01T10:00:00Z,27.8888,-97.5696,0.0,3.3,1111122 
TCOON,ioos:station:TCOON:042:1,2014-01-01T10:30:00Z,27.8888,-97.5696,0.0,3.5,1111122 
TCOON,ioos:station:TCOON:042:1,2014-01-01T11:00:00Z,27.8888,-97.5696,0.0,3.3,1111122 
TCOON,ioos:station:TCOON:042:1,2014-01-01T11:30:00Z,27.8888,-97.5696,0.0,3.2,1111122 
TCOON,ioos:station:TCOON:042:1,2014-01-01T12:00:00Z,27.8888,-97.5696,0.0,3.2,1111122 
TCOON,ioos:station:TCOON:042:1,2014-01-01T12:30:00Z,27.8888,-97.5696,0.0,3.3,1111122 
TCOON,ioos:station:TCOON:042:1,2014-01-01T13:00:00Z,27.8888,-97.5696,0.0,3.5,1111122 
TCOON,ioos:station:TCOON:042:1,2014-01-01T13:30:00Z,27.8888,-97.5696,0.0,3.5,1111122 
TCOON,ioos:station:TCOON:042:1,2014-01-01T14:00:00Z,27.8888,-97.5696,0.0,3.5,1111122 
TCOON,ioos:station:TCOON:042:1,2014-01-01T14:30:00Z,27.8888,-97.5696,0.0,3.4,1111122 
TCOON,ioos:station:TCOON:042:1,2014-01-01T15:00:00Z,27.8888,-97.5696,0.0,3.3,1111122 
TCOON,ioos:station:TCOON:042:1,2014-01-01T15:30:00Z,27.8888,-97.5696,0.0,3.3,1111122 
TCOON,ioos:station:TCOON:042:1,2014-01-01T16:00:00Z,27.8888,-97.5696,0.0,3.1,1111122 
TCOON,ioos:station:TCOON:042:1,2014-01-01T16:30:00Z,27.8888,-97.5696,0.0,3.1,1111122 
TCOON,ioos:station:TCOON:042:1,2014-01-01T17:00:00Z,27.8888,-97.5696,0.0,3.0,1111122 
TCOON,ioos:station:TCOON:042:1,2014-01-01T17:30:00Z,27.8888,-97.5696,0.0,3.1,1111122 
TCOON,ioos:station:TCOON:042:1,2014-01-01T18:00:00Z,27.8888,-97.5696,0.0,3.2,1111122 
TCOON,ioos:station:TCOON:042:1,2014-01-01T18:30:00Z,27.8888,-97.5696,0.0,3.4,1111122 
TCOON,ioos:station:TCOON:042:1,2014-01-01T19:00:00Z,27.8888,-97.5696,0.0,3.7,1111122 
TCOON,ioos:station:TCOON:042:1,2014-01-01T19:30:00Z,27.8888,-97.5696,0.0,3.9,1111122 
TCOON,ioos:station:TCOON:042:1,2014-01-01T20:00:00Z,27.8888,-97.5696,0.0,3.8,1111122 
TCOON,ioos:station:TCOON:042:1,2014-01-01T20:30:00Z,27.8888,-97.5696,0.0,3.9,1111122 
TCOON,ioos:station:TCOON:042:1,2014-01-01T21:00:00Z,27.8888,-97.5696,0.0,3.7,1111122 
TCOON,ioos:station:TCOON:042:1,2014-01-01T21:30:00Z,27.8888,-97.5696,0.0,4.5,1111122 
TCOON,ioos:station:TCOON:042:1,2014-01-01T22:00:00Z,27.8888,-97.5696,0.0,4.4,1111122 
TCOON,ioos:station:TCOON:042:1,2014-01-01T22:30:00Z,27.8888,-97.5696,0.0,4.1,1111122 
TCOON,ioos:station:TCOON:042:1,2014-01-01T23:00:00Z,27.8888,-97.5696,0.0,4.6,1111122 
TCOON,ioos:station:TCOON:042:1,2014-01-01T23:30:00Z,27.8888,-97.5696,0.0,4.2,1111122 
TCOON,ioos:station:TCOON:042:1,2014-01-02T00:00:00Z,27.8888,-97.5696,0.0,4.6,1111122 
TCOON,ioos:station:TCOON:042:1,2014-01-02T00:30:00Z,27.8888,-97.5696,0.0,4.6,1111122 
TCOON,ioos:station:TCOON:042:1,2014-01-02T01:00:00Z,27.8888,-97.5696,0.0,4.5,1111122 
TCOON,ioos:station:TCOON:042:1,2014-01-02T01:30:00Z,27.8888,-97.5696,0.0,4.4,1111122 
TCOON,ioos:station:TCOON:042:1,2014-01-02T02:00:00Z,27.8888,-97.5696,0.0,4.7,1111122 
TCOON,ioos:station:TCOON:042:1,2014-01-02T02:30:00Z,27.8888,-97.5696,0.0,4.6,1111122 
TCOON,ioos:station:TCOON:042:1,2014-01-02T03:00:00Z,27.8888,-97.5696,0.0,4.5,1111122 
TCOON,ioos:station:TCOON:042:1,2014-01-02T03:30:00Z,27.8888,-97.5696,0.0,4.8,1111122 
TCOON,ioos:station:TCOON:042:1,2014-01-02T04:00:00Z,27.8888,-97.5696,0.0,5.0,1111122 
TCOON,ioos:station:TCOON:042:1,2014-01-02T04:30:00Z,27.8888,-97.5696,0.0,4.8,1111122 
TCOON,ioos:station:TCOON:042:1,2014-01-02T05:00:00Z,27.8888,-97.5696,0.0,5.3,1111122 
TCOON,ioos:station:TCOON:042:1,2014-01-02T05:30:00Z,27.8888,-97.5696,0.0,5.2,1111122 
TCOON,ioos:station:TCOON:042:1,2014-01-02T06:00:00Z,27.8888,-97.5696,0.0,5.2,1111122 
TCOON,ioos:station:TCOON:042:1,2014-01-02T07:00:00Z,27.8888,-97.5696,0.0,4.9,1111122 
TCOON,ioos:station:TCOON:042:1,2014-01-02T07:30:00Z,27.8888,-97.5696,0.0,4.8,1111122 
TCOON,ioos:station:TCOON:042:1,2014-01-02T08:00:00Z,27.8888,-97.5696,0.0,4.6,1111122 
TCOON,ioos:station:TCOON:042:1,2014-01-02T08:30:00Z,27.8888,-97.5696,0.0,4.5,1111122 
TCOON,ioos:station:TCOON:042:1,2014-01-02T09:00:00Z,27.8888,-97.5696,0.0,4.7,1111122 
TCOON,ioos:station:TCOON:042:1,2014-01-02T09:30:00Z,27.8888,-97.5696,0.0,4.8,1111122 
TCOON,ioos:station:TCOON:042:1,2014-01-02T10:00:00Z,27.8888,-97.5696,0.0,4.4,1111122 
TCOON,ioos:station:TCOON:042:1,2014-01-02T10:30:00Z,27.8888,-97.5696,0.0,4.4,1111122 
TCOON,ioos:station:TCOON:042:1,2014-01-02T11:00:00Z,27.8888,-97.5696,0.0,4.8,1111122 
TCOON,ioos:station:TCOON:042:1,2014-01-02T11:30:00Z,27.8888,-97.5696,0.0,5.2,1111122 
TCOON,ioos:station:TCOON:042:1,2014-01-02T12:00:00Z,27.8888,-97.5696,0.0,5.6,1111122 
TCOON,ioos:station:TCOON:042:1,2014-01-02T12:30:00Z,27.8888,-97.5696,0.0,5.7,1111122 
TCOON,ioos:station:TCOON:042:1,2014-01-02T13:00:00Z,27.8888,-97.5696,0.0,10.0,1111122 
TCOON,ioos:station:TCOON:042:1,2014-01-02T13:30:00Z,27.8888,-97.5696,0.0,16.3,1111122 
TCOON,ioos:station:TCOON:042:1,2014-01-02T14:00:00Z,27.8888,-97.5696,0.0,13.6,1111122 
TCOON,ioos:station:TCOON:042:1,2014-01-02T14:30:00Z,27.8888,-97.5696,0.0,5.5,1111122 
TCOON,ioos:station:TCOON:042:1,2014-01-02T15:00:00Z,27.8888,-97.5696,0.0,5.2,1111122 
TCOON,ioos:station:TCOON:042:1,2014-01-02T15:30:00Z,27.8888,-97.5696,0.0,4.9,1111122 
TCOON,ioos:station:TCOON:042:1,2014-01-02T16:00:00Z,27.8888,-97.5696,0.0,5.6,1111122 
TCOON,ioos:station:TCOON:042:1,2014-01-02T16:30:00Z,27.8888,-97.5696,0.0,5.2,1111122 
TCOON,ioos:station:TCOON:042:1,2014-01-02T17:30:00Z,27.8888,-97.5696,0.0,4.9,1111122 
TCOON,ioos:station:TCOON:042:1,2014-01-02T18:00:00Z,27.8888,-97.5696,0.0,4.6,1111122 
TCOON,ioos:station:TCOON:042:1,2014-01-02T18:30:00Z,27.8888,-97.5696,0.0,4.6,1111122 
TCOON,ioos:station:TCOON:042:1,2014-01-02T19:00:00Z,27.8888,-97.5696,0.0,5.3,1111122 
TCOON,ioos:station:TCOON:042:1,2014-01-02T20:00:00Z,27.8888,-97.5696,0.0,5.0,1111122 
TCOON,ioos:station:TCOON:042:1,2014-01-02T20:30:00Z,27.8888,-97.5696,0.0,5.1,1111122 
TCOON,ioos:station:TCOON:042:1,2014-01-02T21:00:00Z,27.8888,-97.5696,0.0,5.3,1111122 
TCOON,ioos:station:TCOON:042:1,2014-01-02T22:00:00Z,27.8888,-97.5696,0.0,5.0,1111122 
TCOON,ioos:station:TCOON:042:1,2014-01-02T23:00:00Z,27.8888,-97.5696,0.0,5.7,1111122 
TCOON,ioos:station:TCOON:042:1,2014-01-02T23:30:00Z,27.8888,-97.5696,0.0,6.0,1111122 
TCOON,ioos:station:TCOON:042:1,2014-01-03T00:00:00Z,27.8888,-97.5696,0.0,7.5,1111122 
TCOON,ioos:station:TCOON:042:1,2014-01-03T00:30:00Z,27.8888,-97.5696,0.0,7.8,1111122 
TCOON,ioos:station:TCOON:042:1,2014-01-03T01:00:00Z,27.8888,-97.5696,0.0,7.9,1111122 
TCOON,ioos:station:TCOON:042:1,2014-01-03T01:30:00Z,27.8888,-97.5696,0.0,7.7,1111122 
TCOON,ioos:station:TCOON:042:1,2014-01-03T02:00:00Z,27.8888,-97.5696,0.0,8.1,1111122 
TCOON,ioos:station:TCOON:042:1,2014-01-03T02:30:00Z,27.8888,-97.5696,0.0,8.1,1111122 
TCOON,ioos:station:TCOON:042:1,2014-01-03T03:00:00Z,27.8888,-97.5696,0.0,8.4,1111122 
TCOON,ioos:station:TCOON:042:1,2014-01-03T03:30:00Z,27.8888,-97.5696,0.0,8.3,1111122 
TCOON,ioos:station:TCOON:042:1,2014-01-03T04:00:00Z,27.8888,-97.5696,0.0,7.7,1111122 
TCOON,ioos:station:TCOON:042:1,2014-01-03T10:30:00Z,27.8888,-97.5696,0.0,6.0,1111122 
TCOON,ioos:station:TCOON:042:1,2014-01-03T11:00:00Z,27.8888,-97.5696,0.0,6.1,1111122 
TCOON,ioos:station:TCOON:042:1,2014-01-03T11:30:00Z,27.8888,-97.5696,0.0,6.3,1111122 
TCOON,ioos:station:TCOON:042:1,2014-01-03T12:00:00Z,27.8888,-97.5696,0.0,6.8,1111122 
TCOON,ioos:station:TCOON:042:1,2014-01-03T12:30:00Z,27.8888,-97.5696,0.0,6.8,1111122 
TCOON,ioos:station:TCOON:042:1,2014-01-03T13:00:00Z,27.8888,-97.5696,0.0,6.8,1111122 
TCOON,ioos:station:TCOON:042:1,2014-01-03T13:30:00Z,27.8888,-97.5696,0.0,6.2,1111122 
TCOON,ioos:station:TCOON:042:1,2014-01-03T14:00:00Z,27.8888,-97.5696,0.0,6.6,1111122 
TCOON,ioos:station:TCOON:042:1,2014-01-03T14:30:00Z,27.8888,-97.5696,0.0,6.3,1111122 
TCOON,ioos:station:TCOON:042:1,2014-01-03T15:00:00Z,27.8888,-97.5696,0.0,6.8,1111122 
TCOON,ioos:station:TCOON:042:1,2014-01-03T15:30:00Z,27.8888,-97.5696,0.0,6.7,1111122 
TCOON,ioos:station:TCOON:042:1,2014-01-03T16:00:00Z,27.8888,-97.5696,0.0,6.9,1111122 
TCOON,ioos:station:TCOON:042:1,2014-01-03T16:30:00Z,27.8888,-97.5696,0.0,5.9,1111122 
TCOON,ioos:station:TCOON:042:1,2014-01-03T17:00:00Z,27.8888,-97.5696,0.0,5.7,1111122 
TCOON,ioos:station:TCOON:042:1,2014-01-03T17:30:00Z,27.8888,-97.5696,0.0,6.7,1111122 
TCOON,ioos:station:TCOON:042:1,2014-01-03T18:00:00Z,27.8888,-97.5696,0.0,6.6,1111122 
TCOON,ioos:station:TCOON:042:1,2014-01-03T18:30:00Z,27.8888,-97.5696,0.0,6.3,1111122 
TCOON,ioos:station:TCOON:042:1,2014-01-03T19:00:00Z,27.8888,-97.5696,0.0,6.1,1111122 
TCOON,ioos:station:TCOON:042:1,2014-01-03T19:30:00Z,27.8888,-97.5696,0.0,6.1,1111122 
TCOON,ioos:station:TCOON:042:1,2014-01-03T20:00:00Z,27.8888,-97.5696,0.0,7.4,1111122 
TCOON,ioos:station:TCOON:042:1,2014-01-03T20:30:00Z,27.8888,-97.5696,0.0,8.1,1111122 
TCOON,ioos:station:TCOON:042:1,2014-01-03T21:00:00Z,27.8888,-97.5696,0.0,9.6,1111122 
TCOON,ioos:station:TCOON:042:1,2014-01-03T21:30:00Z,27.8888,-97.5696,0.0,10.0,1111122 
TCOON,ioos:station:TCOON:042:1,2014-01-03T22:00:00Z,27.8888,-97.5696,0.0,9.9,1111122 
TCOON,ioos:station:TCOON:042:1,2014-01-03T22:30:00Z,27.8888,-97.5696,0.0,9.9,1111122 
TCOON,ioos:station:TCOON:042:1,2014-01-03T23:00:00Z,27.8888,-97.5696,0.0,9.5,1111122 
TCOON,ioos:station:TCOON:042:1,2014-01-03T23:30:00Z,27.8888,-97.5696,0.0,8.8,1111122 
TCOON,ioos:station:TCOON:042:1,2014-01-04T00:00:00Z,27.8888,-97.5696,0.0,8.1,1111122 
TCOON,ioos:station:TCOON:042:1,2014-01-04T00:30:00Z,27.8888,-97.5696,0.0,7.7,1111122 
TCOON,ioos:station:TCOON:042:1,2014-01-04T01:00:00Z,27.8888,-97.5696,0.0,7.3,1111122 
TCOON,ioos:station:TCOON:042:1,2014-01-04T02:00:00Z,27.8888,-97.5696,0.0,7.5,1111122 
TCOON,ioos:station:TCOON:042:1,2014-01-04T03:00:00Z,27.8888,-97.5696,0.0,7.7,1111122 
TCOON,ioos:station:TCOON:042:1,2014-01-04T03:30:00Z,27.8888,-97.5696,0.0,7.7,1111122 
TCOON,ioos:station:TCOON:042:1,2014-01-04T04:00:00Z,27.8888,-97.5696,0.0,7.5,1111122 
TCOON,ioos:station:TCOON:042:1,2014-01-04T04:30:00Z,27.8888,-97.5696,0.0,8.0,1111122 
TCOON,ioos:station:TCOON:042:1,2014-01-04T05:30:00Z,27.8888,-97.5696,0.0,8.8,1111122 
TCOON,ioos:station:TCOON:042:1,2014-01-04T06:00:00Z,27.8888,-97.5696,0.0,8.5,1111122 
TCOON,ioos:station:TCOON:042:1,2014-01-04T06:30:00Z,27.8888,-97.5696,0.0,8.8,1111122 
TCOON,ioos:station:TCOON:042:1,2014-01-04T07:00:00Z,27.8888,-97.5696,0.0,8.2,1111122 
TCOON,ioos:station:TCOON:042:1,2014-01-04T07:30:00Z,27.8888,-97.5696,0.0,9.0,1111122 
TCOON,ioos:station:TCOON:042:1,2014-01-04T08:30:00Z,27.8888,-97.5696,0.0,8.6,1111122 
TCOON,ioos:station:TCOON:042:1,2014-01-04T09:00:00Z,27.8888,-97.5696,0.0,9.0,1111122 
TCOON,ioos:station:TCOON:042:1,2014-01-04T09:30:00Z,27.8888,-97.5696,0.0,9.1,1111122 
TCOON,ioos:station:TCOON:042:1,2014-01-04T10:00:00Z,27.8888,-97.5696,0.0,9.3,1111122 
TCOON,ioos:station:TCOON:042:1,2014-01-04T11:00:00Z,27.8888,-97.5696,0.0,9.2,1111122 
TCOON,ioos:station:TCOON:042:1,2014-01-04T11:30:00Z,27.8888,-97.5696,0.0,8.9,1111122 
TCOON,ioos:station:TCOON:042:1,2014-01-04T12:00:00Z,27.8888,-97.5696,0.0,8.7,1111122 
TCOON,ioos:station:TCOON:042:1,2014-01-04T12:30:00Z,27.8888,-97.5696,0.0,8.1,1111122 
TCOON,ioos:station:TCOON:042:1,2014-01-04T13:00:00Z,27.8888,-97.5696,0.0,7.5,1111122 
TCOON,ioos:station:TCOON:042:1,2014-01-04T13:30:00Z,27.8888,-97.5696,0.0,7.5,1111122 
TCOON,ioos:station:TCOON:042:1,2014-01-04T14:00:00Z,27.8888,-97.5696,0.0,7.4,1111122 
TCOON,ioos:station:TCOON:042:1,2014-01-04T14:30:00Z,27.8888,-97.5696,0.0,7.2,1111122 
TCOON,ioos:station:TCOON:042:1,2014-01-04T15:00:00Z,27.8888,-97.5696,0.0,7.8,1111122 
TCOON,ioos:station:TCOON:042:1,2014-01-04T15:30:00Z,27.8888,-97.5696,0.0,7.9,1111122 
TCOON,ioos:station:TCOON:042:1,2014-01-04T16:00:00Z,27.8888,-97.5696,0.0,7.5,1111122 
TCOON,ioos:station:TCOON:042:1,2014-01-04T16:30:00Z,27.8888,-97.5696,0.0,7.7,1111122 
TCOON,ioos:station:TCOON:042:1,2014-01-04T17:00:00Z,27.8888,-97.5696,0.0,7.9,1111122 
TCOON,ioos:station:TCOON:042:1,2014-01-04T17:30:00Z,27.8888,-97.5696,0.0,7.5,1111122 
TCOON,ioos:station:TCOON:042:1,2014-01-04T18:00:00Z,27.8888,-97.5696,0.0,11.5,1111122 
TCOON,ioos:station:TCOON:042:1,2014-01-04T18:30:00Z,27.8888,-97.5696,0.0,12.3,1111122 
TCOON,ioos:station:TCOON:042:1,2014-01-04T19:00:00Z,27.8888,-97.5696,0.0,15.2,1111122 
TCOON,ioos:station:TCOON:042:1,2014-01-04T19:30:00Z,27.8888,-97.5696,0.0,15.9,1111122 
TCOON,ioos:station:TCOON:042:1,2014-01-04T20:00:00Z,27.8888,-97.5696,0.0,16.5,1111122 
TCOON,ioos:station:TCOON:042:1,2014-01-04T20:30:00Z,27.8888,-97.5696,0.0,18.1,1111122 
TCOON,ioos:station:TCOON:042:1,2014-01-04T21:00:00Z,27.8888,-97.5696,0.0,18.2,1111122 
TCOON,ioos:station:TCOON:042:1,2014-01-04T21:30:00Z,27.8888,-97.5696,0.0,19.0,1111122 
TCOON,ioos:station:TCOON:042:1,2014-01-04T22:00:00Z,27.8888,-97.5696,0.0,18.8,1111122 
TCOON,ioos:station:TCOON:042:1,2014-01-04T22:30:00Z,27.8888,-97.5696,0.0,19.2,1111122 
TCOON,ioos:station:TCOON:042:1,2014-01-04T23:00:00Z,27.8888,-97.5696,0.0,19.4,1111122 
TCOON,ioos:station:TCOON:042:1,2014-01-04T23:30:00Z,27.8888,-97.5696,0.0,20.2,1111122 
TCOON,ioos:station:TCOON:042:1,2014-01-05T00:00:00Z,27.8888,-97.5696,0.0,20.1,1111122 
TCOON,ioos:station:TCOON:042:1,2014-01-05T00:30:00Z,27.8888,-97.5696,0.0,20.7,1111122 
TCOON,ioos:station:TCOON:042:1,2014-01-05T01:00:00Z,27.8888,-97.5696,0.0,19.1,1111122 
TCOON,ioos:station:TCOON:042:1,2014-01-05T01:30:00Z,27.8888,-97.5696,0.0,20.2,1111122 
TCOON,ioos:station:TCOON:042:1,2014-01-05T02:00:00Z,27.8888,-97.5696,0.0,19.3,1111122 
TCOON,ioos:station:TCOON:042:1,2014-01-05T02:30:00Z,27.8888,-97.5696,0.0,20.0,1111122 
TCOON,ioos:station:TCOON:042:1,2014-01-05T03:00:00Z,27.8888,-97.5696,0.0,20.1,1111122 
TCOON,ioos:station:TCOON:042:1,2014-01-05T03:30:00Z,27.8888,-97.5696,0.0,20.1,1111122 
TCOON,ioos:station:TCOON:042:1,2014-01-05T04:00:00Z,27.8888,-97.5696,0.0,20.2,1111122 
TCOON,ioos:station:TCOON:042:1,2014-01-05T04:30:00Z,27.8888,-97.5696,0.0,19.3,1111122 
TCOON,ioos:station:TCOON:042:1,2014-01-05T05:00:00Z,27.8888,-97.5696,0.0,19.4,1111122 
TCOON,ioos:station:TCOON:042:1,2014-01-05T05:30:00Z,27.8888,-97.5696,0.0,19.1,1111122 
TCOON,ioos:station:TCOON:042:1,2014-01-05T06:00:00Z,27.8888,-97.5696,0.0,19.3,1111122 
TCOON,ioos:station:TCOON:042:1,2014-01-05T07:00:00Z,27.8888,-97.5696,0.0,18.3,1111122 
TCOON,ioos:station:TCOON:042:1,2014-01-05T07:30:00Z,27.8888,-97.5696,0.0,19.3,1111122 
TCOON,ioos:station:TCOON:042:1,2014-01-05T08:30:00Z,27.8888,-97.5696,0.0,19.0,1111122 
TCOON,ioos:station:TCOON:042:1,2014-01-05T09:00:00Z,27.8888,-97.5696,0.0,19.2,1111122 
TCOON,ioos:station:TCOON:042:1,2014-01-05T09:30:00Z,27.8888,-97.5696,0.0,18.2,1111122 
TCOON,ioos:station:TCOON:042:1,2014-01-05T10:00:00Z,27.8888,-97.5696,0.0,19.0,1111122 
TCOON,ioos:station:TCOON:042:1,2014-01-05T10:30:00Z,27.8888,-97.5696,0.0,18.8,1111122 
TCOON,ioos:station:TCOON:042:1,2014-01-05T11:00:00Z,27.8888,-97.5696,0.0,19.1,1111122 
TCOON,ioos:station:TCOON:042:1,2014-01-05T11:30:00Z,27.8888,-97.5696,0.0,19.8,1111122 
TCOON,ioos:station:TCOON:042:1,2014-01-05T12:00:00Z,27.8888,-97.5696,0.0,18.6,1111122 
TCOON,ioos:station:TCOON:042:1,2014-01-05T12:30:00Z,27.8888,-97.5696,0.0,18.9,1111122 
TCOON,ioos:station:TCOON:042:1,2014-01-05T13:30:00Z,27.8888,-97.5696,0.0,17.2,1111122 
TCOON,ioos:station:TCOON:042:1,2014-01-05T14:00:00Z,27.8888,-97.5696,0.0,15.9,1111122 
TCOON,ioos:station:TCOON:042:1,2014-01-05T14:30:00Z,27.8888,-97.5696,0.0,16.3,1111122 
TCOON,ioos:station:TCOON:042:1,2014-01-05T15:00:00Z,27.8888,-97.5696,0.0,15.8,1111122 
TCOON,ioos:station:TCOON:042:1,2014-01-05T15:30:00Z,27.8888,-97.5696,0.0,14.9,1111122 
TCOON,ioos:station:TCOON:042:1,2014-01-05T16:00:00Z,27.8888,-97.5696,0.0,16.0,1111122 
TCOON,ioos:station:TCOON:042:1,2014-01-05T16:30:00Z,27.8888,-97.5696,0.0,16.5,1111122 
TCOON,ioos:station:TCOON:042:1,2014-01-05T17:00:00Z,27.8888,-97.5696,0.0,16.6,1111122 
TCOON,ioos:station:TCOON:042:1,2014-01-05T17:30:00Z,27.8888,-97.5696,0.0,18.5,1111122 
TCOON,ioos:station:TCOON:042:1,2014-01-05T18:00:00Z,27.8888,-97.5696,0.0,16.4,1111122 
TCOON,ioos:station:TCOON:042:1,2014-01-05T18:30:00Z,27.8888,-97.5696,0.0,16.6,1111122 
TCOON,ioos:station:TCOON:042:1,2014-01-05T19:00:00Z,27.8888,-97.5696,0.0,16.2,1111122 
TCOON,ioos:station:TCOON:042:1,2014-01-05T19:30:00Z,27.8888,-97.5696,0.0,16.5,1111122 
TCOON,ioos:station:TCOON:042:1,2014-01-05T20:00:00Z,27.8888,-97.5696,0.0,17.1,1111122 
TCOON,ioos:station:TCOON:042:1,2014-01-05T20:30:00Z,27.8888,-97.5696,0.0,17.0,1111122 
TCOON,ioos:station:TCOON:042:1,2014-01-05T21:00:00Z,27.8888,-97.5696,0.0,16.4,1111122 
TCOON,ioos:station:TCOON:042:1,2014-01-05T21:30:00Z,27.8888,-97.5696,0.0,16.6,1111122 
TCOON,ioos:station:TCOON:042:1,2014-01-05T22:00:00Z,27.8888,-97.5696,0.0,15.9,1111122 
TCOON,ioos:station:TCOON:042:1,2014-01-05T22:30:00Z,27.8888,-97.5696,0.0,14.5,1111122 
TCOON,ioos:station:TCOON:042:1,2014-01-05T23:00:00Z,27.8888,-97.5696,0.0,14.5,1111122 
TCOON,ioos:station:TCOON:042:1,2014-01-05T23:30:00Z,27.8888,-97.5696,0.0,13.9,1111122 
TCOON,ioos:station:TCOON:042:1,2014-01-06T00:00:00Z,27.8888,-97.5696,0.0,13.2,1111122 
TCOON,ioos:station:TCOON:042:1,2014-01-06T00:30:00Z,27.8888,-97.5696,0.0,12.9,1111122 
TCOON,ioos:station:TCOON:042:1,2014-01-06T01:00:00Z,27.8888,-97.5696,0.0,11.1,1111122 
TCOON,ioos:station:TCOON:042:1,2014-01-06T01:30:00Z,27.8888,-97.5696,0.0,10.9,1111122 
TCOON,ioos:station:TCOON:042:1,2014-01-06T02:00:00Z,27.8888,-97.5696,0.0,10.8,1111122 
TCOON,ioos:station:TCOON:042:1,2014-01-06T02:30:00Z,27.8888,-97.5696,0.0,11.2,1111122 
TCOON,ioos:station:TCOON:042:1,2014-01-06T03:00:00Z,27.8888,-97.5696,0.0,10.4,1111122 
TCOON,ioos:station:TCOON:042:1,2014-01-06T03:30:00Z,27.8888,-97.5696,0.0,11.3,1111122 
TCOON,ioos:station:TCOON:042:1,2014-01-06T04:00:00Z,27.8888,-97.5696,0.0,11.2,1111122 
TCOON,ioos:station:TCOON:042:1,2014-01-06T04:30:00Z,27.8888,-97.5696,0.0,11.8,1111122 
TCOON,ioos:station:TCOON:042:1,2014-01-06T05:00:00Z,27.8888,-97.5696,0.0,11.8,1111122 
TCOON,ioos:station:TCOON:042:1,2014-01-06T05:30:00Z,27.8888,-97.5696,0.0,11.9,1111122 
TCOON,ioos:station:TCOON:042:1,2014-01-06T06:00:00Z,27.8888,-97.5696,0.0,10.6,1111122 
TCOON,ioos:station:TCOON:042:1,2014-01-06T07:30:00Z,27.8888,-97.5696,0.0,10.5,1111122 
TCOON,ioos:station:TCOON:042:1,2014-01-06T08:00:00Z,27.8888,-97.5696,0.0,9.7,1111122 
TCOON,ioos:station:TCOON:042:1,2014-01-06T09:00:00Z,27.8888,-97.5696,0.0,9.3,1111122 
TCOON,ioos:station:TCOON:042:1,2014-01-06T09:30:00Z,27.8888,-97.5696,0.0,8.8,1111122 
TCOON,ioos:station:TCOON:042:1,2014-01-06T10:00:00Z,27.8888,-97.5696,0.0,9.9,1111122 
TCOON,ioos:station:TCOON:042:1,2014-01-06T10:30:00Z,27.8888,-97.5696,0.0,10.5,1111122 
TCOON,ioos:station:TCOON:042:1,2014-01-06T11:00:00Z,27.8888,-97.5696,0.0,10.2,1111122 
TCOON,ioos:station:TCOON:042:1,2014-01-06T11:30:00Z,27.8888,-97.5696,0.0,10.2,1111122 
TCOON,ioos:station:TCOON:042:1,2014-01-06T12:00:00Z,27.8888,-97.5696,0.0,9.8,1111122 
TCOON,ioos:station:TCOON:042:1,2014-01-06T12:30:00Z,27.8888,-97.5696,0.0,9.6,1111122 
TCOON,ioos:station:TCOON:042:1,2014-01-06T13:00:00Z,27.8888,-97.5696,0.0,9.8,1111122 
TCOON,ioos:station:TCOON:042:1,2014-01-06T13:30:00Z,27.8888,-97.5696,0.0,7.1,1111122 
TCOON,ioos:station:TCOON:042:1,2014-01-06T14:00:00Z,27.8888,-97.5696,0.0,7.0,1111122 
TCOON,ioos:station:TCOON:042:1,2014-01-06T14:30:00Z,27.8888,-97.5696,0.0,9.8,1111122 
TCOON,ioos:station:TCOON:042:1,2014-01-06T15:00:00Z,27.8888,-97.5696,0.0,9.5,1111122 
TCOON,ioos:station:TCOON:042:1,2014-01-06T15:30:00Z,27.8888,-97.5696,0.0,10.2,1111122 
TCOON,ioos:station:TCOON:042:1,2014-01-06T16:00:00Z,27.8888,-97.5696,0.0,7.9,1111122 
TCOON,ioos:station:TCOON:042:1,2014-01-06T16:30:00Z,27.8888,-97.5696,0.0,10.3,1111122 
TCOON,ioos:station:TCOON:042:1,2014-01-06T17:00:00Z,27.8888,-97.5696,0.0,10.7,1111122 
TCOON,ioos:station:TCOON:042:1,2014-01-06T17:30:00Z,27.8888,-97.5696,0.0,11.1,1111122 
TCOON,ioos:station:TCOON:042:1,2014-01-06T18:00:00Z,27.8888,-97.5696,0.0,11.3,1111122 
TCOON,ioos:station:TCOON:042:1,2014-01-06T18:30:00Z,27.8888,-97.5696,0.0,11.4,1111122 
TCOON,ioos:station:TCOON:042:1,2014-01-06T19:30:00Z,27.8888,-97.5696,0.0,10.7,1111122 
TCOON,ioos:station:TCOON:042:1,2014-01-06T20:00:00Z,27.8888,-97.5696,0.0,10.9,1111122 
TCOON,ioos:station:TCOON:042:1,2014-01-06T20:30:00Z,27.8888,-97.5696,0.0,7.9,1111122 
TCOON,ioos:station:TCOON:042:1,2014-01-06T21:00:00Z,27.8888,-97.5696,0.0,8.2,1111122 
TCOON,ioos:station:TCOON:042:1,2014-01-06T21:30:00Z,27.8888,-97.5696,0.0,9.8,1111122 
TCOON,ioos:station:TCOON:042:1,2014-01-06T22:00:00Z,27.8888,-97.5696,0.0,12.1,1111122 
TCOON,ioos:station:TCOON:042:1,2014-01-06T22:30:00Z,27.8888,-97.5696,0.0,12.5,1111122 
TCOON,ioos:station:TCOON:042:1,2014-01-06T23:30:00Z,27.8888,-97.5696,0.0,13.1,1111122 
TCOON,ioos:station:TCOON:042:1,2014-01-07T00:00:00Z,27.8888,-97.5696,0.0,12.8,1111122 
TCOON,ioos:station:TCOON:042:1,2014-01-07T00:30:00Z,27.8888,-97.5696,0.0,12.0,1111122 
TCOON,ioos:station:TCOON:042:1,2014-01-07T01:00:00Z,27.8888,-97.5696,0.0,12.0,1111122 
TCOON,ioos:station:TCOON:042:1,2014-01-07T01:30:00Z,27.8888,-97.5696,0.0,11.5,1111122 
TCOON,ioos:station:TCOON:042:1,2014-01-07T02:00:00Z,27.8888,-97.5696,0.0,11.1,1111122 
TCOON,ioos:station:TCOON:042:1,2014-01-07T02:30:00Z,27.8888,-97.5696,0.0,11.1,1111122 
TCOON,ioos:station:TCOON:042:1,2014-01-07T03:00:00Z,27.8888,-97.5696,0.0,11.0,1111122 
TCOON,ioos:station:TCOON:042:1,2014-01-07T03:30:00Z,27.8888,-97.5696,0.0,11.2,1111122 
TCOON,ioos:station:TCOON:042:1,2014-01-07T04:00:00Z,27.8888,-97.5696,0.0,11.4,1111122 
TCOON,ioos:station:TCOON:042:1,2014-01-07T04:30:00Z,27.8888,-97.5696,0.0,12.2,1111122 
TCOON,ioos:station:TCOON:042:1,2014-01-07T05:00:00Z,27.8888,-97.5696,0.0,11.9,1111122 
TCOON,ioos:station:TCOON:042:1,2014-01-07T05:30:00Z,27.8888,-97.5696,0.0,12.2,1111122 
TCOON,ioos:station:TCOON:042:1,2014-01-07T06:00:00Z,27.8888,-97.5696,0.0,8.6,1111122 
TCOON,ioos:station:TCOON:042:1,2014-01-07T07:00:00Z,27.8888,-97.5696,0.0,11.2,1111122 
TCOON,ioos:station:TCOON:042:1,2014-01-07T07:30:00Z,27.8888,-97.5696,0.0,11.1,1111122 
TCOON,ioos:station:TCOON:042:1,2014-01-07T08:00:00Z,27.8888,-97.5696,0.0,10.7,1111122 
TCOON,ioos:station:TCOON:042:1,2014-01-07T08:30:00Z,27.8888,-97.5696,0.0,10.3,1111122 
TCOON,ioos:station:TCOON:042:1,2014-01-07T09:30:00Z,27.8888,-97.5696,0.0,10.8,1111122 
TCOON,ioos:station:TCOON:042:1,2014-01-07T10:00:00Z,27.8888,-97.5696,0.0,10.8,1111122 